Weather History for Jackson, WY

Change the Weather History Date:

Wednesday, March 19, 2014

  Actual Average Record
Temperature  
Mean Temperature 24 °F -  
Max Temperature 46 °F 41 °F 55 °F (2007)
Min Temperature 3 °F 13 °F -15 °F (1971)
Degree Days  
Heating Degree Days 40    
Moisture  
Dew Point 13 °F    
Average Humidity 74    
Maximum Humidity 100    
Minimum Humidity 29    
Precipitation  
Precipitation 0.00 in - - ()
Sea Level Pressure  
Sea Level Pressure 30.08 in    
Wind  
Wind Speed 8 mph (South)    
Max Wind Speed 20 mph    
Max Gust Speed 24 mph    
Visibility 10 miles    
Events      
Averages and records for this station are not official NWS values.
T = Trace of Precipitation, MM = Missing Value Source: NWS Daily Summary

Daily Weather History Graph

Daily Weather History Graph

Search for Another Location

Airport:

Trip Planner

Search our weather history database for the weather conditions in past years. The results will help you decide how hot, cold, wet, or windy it might be!

Date:

Astronomy

Mar. 19, 2014 Rise Set
Actual Time 7:27 AM MDT 7:34 PM MDT
Civil Twilight 6:59 AM MDT 8:02 PM MDT
Nautical Twilight 6:25 AM MDT 8:36 PM MDT
Astronomical Twilight 5:51 AM MDT 9:10 PM MDT
Moon 11:03 PM MDT (3/19) 8:50 AM MDT (3/19)
Length of Visible Light 13h 03m
Length of Day
12h 06m
Waning Gibbous, 91% of the Moon is Illuminated
Mar 19
Waning Gibbous
Mar 23
Last Quarter
Mar 30
New
Apr 7
First Quarter
Apr 15
Full

Hourly Weather History & Observations

Time (MDT) Temp. Windchill Dew Point Humidity Pressure Visibility Wind Dir Wind Speed Gust Speed Precip Events Conditions
12:15 AM 21.2 °F 13.6 °F 17.6 °F 86% 30.08 in - SSW 5.8 mph - N/A   Overcast
12:35 AM 23.0 °F 18.4 °F 17.6 °F 80% 30.08 in 10.0 mi South 3.5 mph - N/A   Mostly Cloudy
12:55 AM 23.0 °F 18.4 °F 17.6 °F 80% 30.08 in - SSW 3.5 mph - N/A   Scattered Clouds
1:15 AM 19.4 °F 11.5 °F 15.8 °F 86% 30.08 in - WSW 5.8 mph - N/A   Unknown
1:35 AM 19.4 °F 11.5 °F 15.8 °F 86% 30.09 in 10.0 mi SSW 5.8 mph - N/A   Partly Cloudy
1:55 AM 19.4 °F 12.8 °F 12.2 °F 74% 30.09 in 10.0 mi SSW 4.6 mph - N/A   Clear
2:15 AM 19.4 °F 12.8 °F 14.0 °F 80% 30.09 in 10.0 mi SSW 4.6 mph - N/A   Clear
2:35 AM 17.6 °F 10.7 °F 14.0 °F 86% 30.10 in 10.0 mi South 4.6 mph - N/A   Clear
2:55 AM 17.6 °F 8.2 °F 12.2 °F 79% 30.10 in 10.0 mi South 6.9 mph - N/A   Clear
3:15 AM 15.8 °F 6.1 °F 10.4 °F 79% 30.11 in 10.0 mi SSW 6.9 mph - N/A   Clear
3:35 AM 17.6 °F 10.7 °F 12.2 °F 79% 30.11 in 10.0 mi SSW 4.6 mph - N/A   Clear
3:55 AM 15.8 °F - 10.4 °F 79% 30.11 in 10.0 mi Calm Calm - N/A   Clear
4:15 AM 15.8 °F - 10.4 °F 79% 30.11 in 10.0 mi Calm Calm - N/A   Clear
4:35 AM 12.2 °F - 8.6 °F 85% 30.11 in 10.0 mi Calm Calm - N/A   Clear
4:55 AM 8.6 °F 2.0 °F 6.8 °F 92% 30.11 in 10.0 mi NE 3.5 mph - N/A   Clear
5:15 AM 10.4 °F 0.8 °F 8.6 °F 92% 30.11 in 10.0 mi East 5.8 mph - N/A   Clear
5:35 AM 12.2 °F 1.7 °F 6.8 °F 79% 30.12 in 10.0 mi North 6.9 mph - N/A   Clear
5:55 AM 5.0 °F -10.0 °F 3.2 °F 92% 30.12 in 10.0 mi North 10.4 mph - N/A   Clear
6:15 AM 3.2 °F -12.2 °F 3.2 °F 100% 30.12 in 10.0 mi North 10.4 mph - N/A   Clear
6:35 AM 3.2 °F -13.1 °F 3.2 °F 100% 30.13 in 10.0 mi North 11.5 mph - N/A   Scattered Clouds
6:55 AM 3.2 °F -13.9 °F 3.2 °F 100% 30.13 in 10.0 mi North 12.7 mph - N/A   Scattered Clouds
7:51 AM 3.2 °F -11.3 °F 3.2 °F 100% 30.15 in 10.0 mi North 9.2 mph - N/A   Scattered Clouds
8:52 AM 8.6 °F -4.7 °F 6.8 °F 92% 30.15 in 10.0 mi North 9.2 mph - N/A   Clear
9:55 AM 12.2 °F 1.7 °F 8.6 °F 85% 30.16 in 10.0 mi North 6.9 mph - N/A   Clear
10:51 AM 15.8 °F 5.1 °F 10.4 °F 79% 30.17 in 10.0 mi NNE 8.1 mph - N/A   Clear
11:54 AM 21.2 °F 14.9 °F 15.8 °F 80% 30.16 in 10.0 mi NNE 4.6 mph - N/A   Clear
12:53 PM 26.6 °F 21.2 °F 15.8 °F 64% 30.13 in 10.0 mi East 4.6 mph - N/A   Clear
1:54 PM 46.4 °F 40.7 °F 15.8 °F 29% 30.11 in 10.0 mi South 12.7 mph - N/A   Clear
2:55 PM 33.8 °F 22.8 °F 12.2 °F 41% 30.06 in 10.0 mi South 18.4 mph - N/A   Clear
4:35 PM 33.8 °F 22.8 °F 15.8 °F 48% 30.04 in 10.0 mi South 18.4 mph - N/A   Partly Cloudy
4:55 PM 33.8 °F 22.8 °F 17.6 °F 52% 30.03 in 10.0 mi South 18.4 mph 24.2 mph N/A   Partly Cloudy
5:52 PM 33.8 °F 23.2 °F 17.6 °F 52% 30.02 in 10.0 mi South 17.3 mph - N/A   Clear
6:58 PM 32.0 °F 22.5 °F 17.6 °F 55% 30.02 in 10.0 mi South 12.7 mph - N/A   Clear
7:58 PM 30.2 °F 19.3 °F 19.4 °F 64% 30.01 in 10.0 mi South 15.0 mph - N/A   Clear
8:55 PM 30.2 °F 18.1 °F 19.4 °F 64% 30.01 in 10.0 mi South 18.4 mph - N/A   Clear
9:15 PM 30.2 °F 18.5 °F 19.4 °F 64% 30.01 in 10.0 mi South 17.3 mph - N/A   Clear
9:35 PM 30.2 °F 17.8 °F 19.4 °F 64% 30.01 in 10.0 mi South 19.6 mph - N/A   Clear
9:55 PM 30.2 °F 18.5 °F 19.4 °F 64% 30.01 in 10.0 mi South 17.3 mph - N/A   Clear
10:15 PM 30.2 °F 18.1 °F 19.4 °F 64% 30.01 in 10.0 mi South 18.4 mph - N/A   Clear
10:35 PM 30.2 °F 19.3 °F 19.4 °F 64% 30.02 in 10.0 mi South 15.0 mph - N/A   Clear
10:55 PM 30.2 °F 18.5 °F 19.4 °F 64% 30.02 in 10.0 mi South 17.3 mph - N/A   Clear
11:15 PM 30.2 °F 18.1 °F 19.4 °F 64% 30.02 in 10.0 mi South 18.4 mph - N/A   Clear
11:35 PM 30.2 °F 19.8 °F 17.6 °F 60% 30.02 in 10.0 mi South 13.8 mph - N/A   Clear
11:55 PM 30.2 °F 20.2 °F 17.6 °F 60% 30.02 in 10.0 mi SSW 12.7 mph - N/A   Clear